Time,TemperatureF,DewpointF,PressureIn,WindDirection,WindDirectionDegrees,WindSpeedMPH,WindSpeedGustMPH,Humidity,HourlyPrecipIn,Conditions,Clouds,dailyrainin,SoftwareType,DateUTC
2013-01-31 00:00:00,58.6,51.5,29.80,WNW,292,5.6,7.4,77,0.00,,---,0.00,VWS V14.01,2013-01-31 05:00:00,
2013-01-31 00:05:00,57.7,50.6,29.80,West,270,6.3,6.5,77,0.00,,---,0.00,VWS V14.01,2013-01-31 05:05:00,
2013-01-31 00:06:00,69.6,60.6,29.71,WNW,292,6.0,6.5,73,0.00,,---,0.00,VWS V14.01,2013-01-31 05:06:00,
2013-01-31 00:09:00,69.8,60.4,29.71,West,270,2.9,6.0,72,0.00,,---,0.00,VWS V14.01,2013-01-31 05:09:00,
2013-01-31 00:10:00,57.2,50.8,29.80,WSW,248,2.7,6.3,79,0.00,,---,0.00,VWS V14.01,2013-01-31 05:10:00,
2013-01-31 00:11:00,69.8,60.4,29.71,WNW,292,3.1,6.0,72,0.00,,---,0.00,VWS V14.01,2013-01-31 05:11:00,
2013-01-31 00:15:00,56.8,50.7,29.80,West,270,0.0,3.6,80,0.00,,---,0.00,VWS V14.01,2013-01-31 05:15:00,
2013-01-31 00:16:00,69.3,58.3,29.76,NW,315,5.4,9.8,68,0.00,,---,0.00,VWS V14.01,2013-01-31 05:16:00,
2013-01-31 00:20:00,56.7,50.9,29.80,WSW,248,0.0,3.1,81,0.00,,---,0.00,VWS V14.01,2013-01-31 05:20:00,
2013-01-31 00:21:00,66.6,53.2,29.76,NW,315,6.9,9.2,62,0.00,,---,0.00,VWS V14.01,2013-01-31 05:21:00,
2013-01-31 00:25:00,56.7,50.9,29.80,WNW,292,0.0,3.8,81,0.00,,---,0.00,VWS V14.01,2013-01-31 05:25:00,
2013-01-31 00:26:00,65.1,51.8,29.76,NW,315,6.5,8.1,62,0.00,,---,0.00,VWS V14.01,2013-01-31 05:26:00,
2013-01-31 00:30:00,56.7,50.9,29.80,West,270,0.0,0.0,81,0.00,,---,0.00,VWS V14.01,2013-01-31 05:30:00,
2013-01-31 00:31:00,63.3,51.8,29.79,SSW,202,6.3,8.1,66,0.00,,---,0.00,VWS V14.01,2013-01-31 05:31:00,
2013-01-31 00:35:00,56.3,50.9,29.80,West,270,2.9,3.6,82,0.00,,---,0.00,VWS V14.01,2013-01-31 05:35:00,
2013-01-31 00:36:00,62.2,52.3,29.79,NW,315,2.9,6.5,70,0.00,,---,0.00,VWS V14.01,2013-01-31 05:36:00,
2013-01-31 00:39:00,61.9,52.4,29.79,NW,315,1.3,7.6,71,0.00,,---,0.00,VWS V14.01,2013-01-31 05:39:00,
2013-01-31 00:40:00,56.1,51.4,29.80,WSW,248,2.5,2.9,84,0.00,,---,0.00,VWS V14.01,2013-01-31 05:40:00,
2013-01-31 00:44:00,61.2,52.8,29.79,WNW,292,3.8,6.0,74,0.00,,---,0.00,VWS V14.01,2013-01-31 05:44:00,
2013-01-31 00:45:00,56.1,51.4,29.82,WSW,248,1.3,3.6,84,0.03,,---,0.03,VWS V14.01,2013-01-31 05:45:00,
2013-01-31 00:49:00,60.6,53.0,29.79,West,270,3.1,7.4,76,0.00,,---,0.00,VWS V14.01,2013-01-31 05:49:00,
2013-01-31 00:50:00,56.1,51.4,29.82,NNW,338,1.6,2.9,84,0.03,,---,0.03,VWS V14.01,2013-01-31 05:50:00,
2013-01-31 00:54:00,60.3,53.0,29.79,WNW,292,2.0,6.5,77,0.00,,---,0.00,VWS V14.01,2013-01-31 05:54:00,
2013-01-31 00:55:00,56.1,51.4,29.82,SSW,202,0.0,1.6,84,0.03,,---,0.03,VWS V14.01,2013-01-31 05:55:00,
2013-01-31 00:59:00,58.6,51.5,29.79,West,270,7.4,7.4,77,0.00,,---,0.00,VWS V14.01,2013-01-31 05:59:00,
2013-01-31 01:00:00,55.8,51.3,29.80,West,270,0.0,0.0,85,0.03,,---,0.03,VWS V14.01,2013-01-31 06:00:00,
2013-01-31 01:04:00,57.7,50.6,29.79,WNW,292,6.5,6.5,77,0.00,,---,0.00,VWS V14.01,2013-01-31 06:04:00,
2013-01-31 01:05:00,55.6,51.2,29.80,South,180,0.0,0.0,85,0.03,,---,0.03,VWS V14.01,2013-01-31 06:05:00,
2013-01-31 01:09:00,57.2,50.4,29.79,NW,315,2.5,6.3,78,0.00,,---,0.00,VWS V14.01,2013-01-31 06:09:00,
2013-01-31 01:10:00,55.8,51.3,29.80,SSE,158,0.0,0.0,85,0.03,,---,0.03,VWS V14.01,2013-01-31 06:10:00,
2013-01-31 01:14:00,57.2,50.8,29.79,WNW,292,2.9,3.6,79,0.00,,---,0.00,VWS V14.01,2013-01-31 06:14:00,
2013-01-31 01:15:00,55.8,51.3,29.80,SSW,202,0.0,0.0,85,0.03,,---,0.03,VWS V14.01,2013-01-31 06:15:00,
2013-01-31 01:19:00,56.8,50.7,29.79,West,270,0.0,3.1,80,0.00,,---,0.00,VWS V14.01,2013-01-31 06:19:00,
2013-01-31 01:20:00,55.8,51.6,29.80,East,90,0.0,0.0,86,0.03,,---,0.03,VWS V14.01,2013-01-31 06:20:00,
2013-01-31 01:24:00,56.7,50.9,29.79,WNW,292,0.0,0.9,81,0.00,,---,0.00,VWS V14.01,2013-01-31 06:24:00,
2013-01-31 01:25:00,55.8,51.6,29.80,NNW,338,0.0,0.0,86,0.03,,---,0.03,VWS V14.01,2013-01-31 06:25:00,
2013-01-31 01:29:00,56.7,50.9,29.79,WSW,248,0.0,0.0,81,0.00,,---,0.00,VWS V14.01,2013-01-31 06:29:00,
2013-01-31 01:30:00,55.8,51.6,29.80,ENE,68,0.0,0.0,86,0.03,,---,0.03,VWS V14.01,2013-01-31 06:30:00,
2013-01-31 01:34:00,56.3,50.9,29.79,WNW,292,1.1,2.9,82,0.00,,---,0.00,VWS V14.01,2013-01-31 06:34:00,
2013-01-31 01:35:00,55.8,51.6,29.80,NE,45,0.0,0.0,86,0.03,,---,0.03,VWS V14.01,2013-01-31 06:35:00,
2013-01-31 01:39:00,56.1,51.4,29.79,WSW,248,0.0,2.9,84,0.00,,---,0.00,VWS V14.01,2013-01-31 06:39:00,
2013-01-31 01:40:00,55.8,51.6,29.80,West,270,0.0,0.0,86,0.03,,---,0.03,VWS V14.01,2013-01-31 06:40:00,
2013-01-31 01:44:00,56.1,51.4,29.82,WSW,248,1.3,3.6,84,0.00,,---,0.00,VWS V14.01,2013-01-31 06:44:00,
2013-01-31 01:45:00,55.8,51.6,29.80,WSW,248,0.0,0.0,86,0.03,,---,0.03,VWS V14.01,2013-01-31 06:45:00,
2013-01-31 01:49:00,56.1,51.4,29.82,WSW,248,2.9,2.9,84,0.03,,---,0.03,VWS V14.01,2013-01-31 06:49:00,
2013-01-31 01:50:00,55.8,51.6,29.80,WNW,292,0.0,0.0,86,0.00,,---,0.03,VWS V14.01,2013-01-31 06:50:00,
2013-01-31 01:54:00,56.1,51.4,29.82,SW,225,0.0,1.6,84,0.03,,---,0.03,VWS V14.01,2013-01-31 06:54:00,
2013-01-31 01:55:00,55.8,51.6,29.80,West,270,0.0,0.0,86,0.00,,---,0.03,VWS V14.01,2013-01-31 06:55:00,
2013-01-31 01:59:00,56.1,51.4,29.79,SW,225,0.0,0.0,84,0.03,,---,0.03,VWS V14.01,2013-01-31 06:59:00,
2013-01-31 02:00:00,55.9,52.1,29.82,WSW,248,0.0,0.0,87,0.00,,---,0.03,VWS V14.01,2013-01-31 07:00:00,
2013-01-31 02:04:00,55.8,51.3,29.79,South,180,0.0,0.0,85,0.03,,---,0.03,VWS V14.01,2013-01-31 07:04:00,
2013-01-31 02:05:00,55.9,51.8,29.82,SW,225,0.0,0.0,86,0.00,,---,0.03,VWS V14.01,2013-01-31 07:05:00,
2013-01-31 02:09:00,55.8,51.3,29.79,NE,45,0.0,0.0,85,0.03,,---,0.03,VWS V14.01,2013-01-31 07:09:00,
2013-01-31 02:10:00,55.9,51.8,29.82,NNW,338,0.0,0.0,86,0.00,,---,0.03,VWS V14.01,2013-01-31 07:10:00,
2013-01-31 02:14:00,55.8,51.3,29.79,South,180,0.0,0.0,85,0.03,,---,0.03,VWS V14.01,2013-01-31 07:14:00,
2013-01-31 02:15:00,55.9,52.1,29.82,West,270,0.0,0.0,87,0.00,,---,0.03,VWS V14.01,2013-01-31 07:15:00,
2013-01-31 02:19:00,55.8,51.6,29.79,WSW,248,0.0,0.0,86,0.03,,---,0.03,VWS V14.01,2013-01-31 07:19:00,
2013-01-31 02:20:00,55.9,52.1,29.82,SSW,202,0.0,0.0,87,0.00,,---,0.03,VWS V14.01,2013-01-31 07:20:00,
2013-01-31 02:24:00,55.8,51.6,29.79,North,0,0.0,0.0,86,0.03,,---,0.03,VWS V14.01,2013-01-31 07:24:00,
2013-01-31 02:25:00,55.9,52.1,29.82,WSW,248,0.0,0.0,87,0.00,,---,0.03,VWS V14.01,2013-01-31 07:25:00,
2013-01-31 02:29:00,55.8,51.6,29.79,West,270,0.0,0.0,86,0.03,,---,0.03,VWS V14.01,2013-01-31 07:29:00,
2013-01-31 02:30:00,55.9,52.1,29.82,South,180,0.0,0.0,87,0.00,,---,0.03,VWS V14.01,2013-01-31 07:30:00,
2013-01-31 02:34:00,55.8,51.6,29.79,NNE,22,0.0,0.0,86,0.03,,---,0.03,VWS V14.01,2013-01-31 07:34:00,
2013-01-31 02:35:00,55.9,52.1,29.82,SW,225,0.0,0.0,87,0.00,,---,0.03,VWS V14.01,2013-01-31 07:35:00,
2013-01-31 02:39:00,55.8,51.6,29.79,West,270,0.0,0.0,86,0.03,,---,0.03,VWS V14.01,2013-01-31 07:39:00,
2013-01-31 02:40:00,55.8,52.0,29.82,SW,225,0.0,0.0,87,0.00,,---,0.03,VWS V14.01,2013-01-31 07:40:00,
2013-01-31 02:44:00,55.8,51.6,29.79,West,270,0.0,0.0,86,0.03,,---,0.03,VWS V14.01,2013-01-31 07:44:00,
2013-01-31 02:45:00,55.8,52.0,29.82,SW,225,0.0,0.0,87,0.00,,---,0.03,VWS V14.01,2013-01-31 07:45:00,
2013-01-31 02:49:00,55.8,51.6,29.79,WSW,248,0.0,0.0,86,0.00,,---,0.03,VWS V14.01,2013-01-31 07:49:00,
2013-01-31 02:50:00,55.8,52.0,29.82,SW,225,0.0,0.0,87,0.00,,---,0.03,VWS V14.01,2013-01-31 07:50:00,
2013-01-31 02:54:00,55.8,51.6,29.79,West,270,0.0,0.0,86,0.00,,---,0.03,VWS V14.01,2013-01-31 07:54:00,
2013-01-31 02:55:00,55.8,52.3,29.82,WSW,248,0.0,0.0,88,0.00,,---,0.03,VWS V14.01,2013-01-31 07:55:00,
2013-01-31 02:59:00,55.9,51.8,29.82,WSW,248,0.0,0.0,86,0.00,,---,0.03,VWS V14.01,2013-01-31 07:59:00,
2013-01-31 03:00:00,55.9,52.4,29.82,WSW,248,0.0,0.0,88,0.00,,---,0.03,VWS V14.01,2013-01-31 08:00:00,
2013-01-31 03:04:00,55.9,52.1,29.82,SW,225,0.0,0.0,87,0.00,,---,0.03,VWS V14.01,2013-01-31 08:04:00,
2013-01-31 03:05:00,55.9,52.4,29.82,WSW,248,0.0,0.0,88,0.00,,---,0.03,VWS V14.01,2013-01-31 08:05:00,
2013-01-31 03:09:00,55.9,51.8,29.82,West,270,0.0,0.0,86,0.00,,---,0.03,VWS V14.01,2013-01-31 08:09:00,
2013-01-31 03:10:00,55.9,52.4,29.82,SSW,202,0.0,0.0,88,0.00,,---,0.03,VWS V14.01,2013-01-31 08:10:00,
2013-01-31 03:14:00,55.9,52.1,29.82,West,270,0.0,0.0,87,0.00,,---,0.03,VWS V14.01,2013-01-31 08:14:00,
2013-01-31 03:15:00,55.9,52.4,29.82,West,270,0.0,2.0,88,0.00,,---,0.03,VWS V14.01,2013-01-31 08:15:00,
2013-01-31 03:19:00,55.9,52.1,29.82,SSW,202,0.0,0.0,87,0.00,,---,0.03,VWS V14.01,2013-01-31 08:19:00,
2013-01-31 03:20:00,55.8,52.0,29.82,SE,135,0.0,1.3,87,0.00,,---,0.03,VWS V14.01,2013-01-31 08:20:00,
2013-01-31 03:24:00,55.9,52.1,29.82,SSW,202,0.0,0.0,87,0.00,,---,0.03,VWS V14.01,2013-01-31 08:24:00,
2013-01-31 03:25:00,55.9,52.1,29.82,NW,315,0.0,0.0,87,0.00,,---,0.03,VWS V14.01,2013-01-31 08:25:00,
2013-01-31 03:29:00,55.9,52.1,29.82,WSW,248,0.0,0.0,87,0.00,,---,0.03,VWS V14.01,2013-01-31 08:29:00,
2013-01-31 03:30:00,55.9,52.1,29.82,West,270,0.0,0.0,87,0.00,,---,0.03,VWS V14.01,2013-01-31 08:30:00,
2013-01-31 03:34:00,55.9,52.1,29.82,SW,225,0.0,0.0,87,0.00,,---,0.03,VWS V14.01,2013-01-31 08:34:00,
2013-01-31 03:35:00,55.9,52.4,29.82,West,270,0.0,0.0,88,0.00,,---,0.03,VWS V14.01,2013-01-31 08:35:00,
2013-01-31 03:39:00,55.8,52.0,29.82,SW,225,0.0,0.0,87,0.00,,---,0.03,VWS V14.01,2013-01-31 08:39:00,
2013-01-31 03:40:00,55.8,52.0,29.82,West,270,0.0,0.0,87,0.00,,---,0.03,VWS V14.01,2013-01-31 08:40:00,
2013-01-31 03:44:00,55.8,52.0,29.82,SW,225,0.0,0.0,87,0.00,,---,0.03,VWS V14.01,2013-01-31 08:44:00,
2013-01-31 03:45:00,55.6,51.8,29.82,WSW,248,0.0,0.0,87,0.00,,---,0.03,VWS V14.01,2013-01-31 08:45:00,
2013-01-31 03:49:00,55.8,52.0,29.82,SW,225,0.0,0.0,87,0.00,,---,0.03,VWS V14.01,2013-01-31 08:49:00,
2013-01-31 03:50:00,55.6,51.8,29.82,WSW,248,0.0,0.0,87,0.00,,---,0.03,VWS V14.01,2013-01-31 08:50:00,
2013-01-31 03:54:00,55.8,52.3,29.82,SW,225,0.0,0.0,88,0.00,,---,0.03,VWS V14.01,2013-01-31 08:54:00,
2013-01-31 03:55:00,55.8,52.0,29.82,West,270,0.0,0.0,87,0.00,,---,0.03,VWS V14.01,2013-01-31 08:55:00,
2013-01-31 03:59:00,55.9,52.4,29.82,WSW,248,0.0,0.0,88,0.00,,---,0.03,VWS V14.01,2013-01-31 08:59:00,
2013-01-31 04:00:00,55.8,52.0,29.82,SW,225,0.0,0.0,87,0.00,,---,0.03,VWS V14.01,2013-01-31 09:00:00,
2013-01-31 04:04:00,55.9,52.4,29.82,WSW,248,0.0,0.0,88,0.00,,---,0.03,VWS V14.01,2013-01-31 09:04:00,
2013-01-31 04:05:00,55.8,52.0,29.82,WNW,292,0.0,0.0,87,0.00,,---,0.03,VWS V14.01,2013-01-31 09:05:00,
2013-01-31 04:09:00,55.8,52.3,29.82,SSW,202,0.0,0.0,88,0.00,,---,0.03,VWS V14.01,2013-01-31 09:09:00,
2013-01-31 04:10:00,55.8,52.0,29.82,West,270,0.0,0.0,87,0.00,,---,0.03,VWS V14.01,2013-01-31 09:10:00,
2013-01-31 04:14:00,55.8,52.3,29.82,WNW,292,0.0,2.0,88,0.00,,---,0.03,VWS V14.01,2013-01-31 09:14:00,
2013-01-31 04:15:00,55.6,51.8,29.82,WSW,248,0.0,0.0,87,0.00,,---,0.03,VWS V14.01,2013-01-31 09:15:00,
2013-01-31 04:19:00,55.9,52.4,29.82,WNW,292,0.0,0.0,88,0.00,,---,0.03,VWS V14.01,2013-01-31 09:19:00,
2013-01-31 04:20:00,55.6,51.8,29.82,West,270,0.0,0.0,87,0.00,,---,0.03,VWS V14.01,2013-01-31 09:20:00,
2013-01-31 04:24:00,55.9,52.4,29.82,WNW,292,0.0,0.0,88,0.00,,---,0.03,VWS V14.01,2013-01-31 09:24:00,
2013-01-31 04:25:00,55.4,51.3,29.82,West,270,0.0,0.0,86,0.00,,---,0.03,VWS V14.01,2013-01-31 09:25:00,
2013-01-31 04:29:00,55.9,52.1,29.82,West,270,0.0,0.0,87,0.00,,---,0.03,VWS V14.01,2013-01-31 09:29:00,
2013-01-31 04:30:00,55.2,51.4,29.82,West,270,0.0,0.0,87,0.00,,---,0.03,VWS V14.01,2013-01-31 09:30:00,
2013-01-31 04:34:00,55.9,52.1,29.82,West,270,0.0,0.0,87,0.00,,---,0.03,VWS V14.01,2013-01-31 09:34:00,
2013-01-31 04:35:00,55.2,51.1,29.82,NW,315,0.0,0.0,86,0.00,,---,0.03,VWS V14.01,2013-01-31 09:35:00,
2013-01-31 04:39:00,55.9,52.1,29.82,WSW,248,0.0,0.0,87,0.00,,---,0.03,VWS V14.01,2013-01-31 09:39:00,
2013-01-31 04:40:00,55.0,50.6,29.82,WNW,292,1.3,2.7,85,0.00,,---,0.03,VWS V14.01,2013-01-31 09:40:00,
2013-01-31 04:44:00,55.6,51.8,29.82,West,270,0.0,0.0,87,0.00,,---,0.03,VWS V14.01,2013-01-31 09:44:00,
2013-01-31 04:45:00,54.7,50.0,29.85,NW,315,2.5,3.6,84,0.00,,---,0.03,VWS V14.01,2013-01-31 09:45:00,
2013-01-31 04:49:00,55.6,51.8,29.82,WSW,248,0.0,0.0,87,0.00,,---,0.03,VWS V14.01,2013-01-31 09:49:00,
2013-01-31 04:50:00,54.7,49.3,29.85,WNW,292,0.9,3.4,82,0.00,,---,0.03,VWS V14.01,2013-01-31 09:50:00,
2013-01-31 04:54:00,55.8,52.0,29.82,West,270,0.0,0.0,87,0.00,,---,0.03,VWS V14.01,2013-01-31 09:54:00,
2013-01-31 04:55:00,54.1,48.8,29.85,WNW,292,0.0,2.2,82,0.00,,---,0.03,VWS V14.01,2013-01-31 09:55:00,
2013-01-31 04:59:00,55.8,52.0,29.82,SW,225,0.0,0.0,87,0.00,,---,0.03,VWS V14.01,2013-01-31 09:59:00,
2013-01-31 05:00:00,54.1,48.5,29.85,WNW,292,0.0,2.9,81,0.00,,---,0.03,VWS V14.01,2013-01-31 10:00:00,
2013-01-31 05:04:00,55.8,52.0,29.82,NNW,338,0.0,0.0,87,0.00,,---,0.03,VWS V14.01,2013-01-31 10:04:00,
2013-01-31 05:05:00,54.0,48.3,29.85,WNW,292,0.0,2.2,81,0.00,,---,0.03,VWS V14.01,2013-01-31 10:05:00,
2013-01-31 05:09:00,55.8,52.0,29.82,WNW,292,0.0,0.0,87,0.00,,---,0.03,VWS V14.01,2013-01-31 10:09:00,
2013-01-31 05:10:00,54.0,47.9,29.85,WNW,292,1.3,3.6,80,0.00,,---,0.03,VWS V14.01,2013-01-31 10:10:00,
2013-01-31 05:14:00,55.6,51.8,29.82,WSW,248,0.0,0.0,87,0.00,,---,0.03,VWS V14.01,2013-01-31 10:14:00,
2013-01-31 05:15:00,53.8,47.4,29.85,WNW,292,1.6,2.5,79,0.00,,---,0.03,VWS V14.01,2013-01-31 10:15:00,
2013-01-31 05:19:00,55.6,51.8,29.82,WSW,248,0.0,0.0,87,0.00,,---,0.03,VWS V14.01,2013-01-31 10:19:00,
2013-01-31 05:20:00,53.8,47.1,29.85,NW,315,2.9,3.4,78,0.00,,---,0.03,VWS V14.01,2013-01-31 10:20:00,
2013-01-31 05:24:00,55.4,51.6,29.82,West,270,0.0,0.0,87,0.00,,---,0.03,VWS V14.01,2013-01-31 10:24:00,
2013-01-31 05:25:00,53.6,46.9,29.85,NW,315,1.3,2.9,78,0.00,,---,0.03,VWS V14.01,2013-01-31 10:25:00,
2013-01-31 05:29:00,55.2,51.4,29.82,West,270,0.0,0.0,87,0.00,,---,0.03,VWS V14.01,2013-01-31 10:29:00,
2013-01-31 05:30:00,53.4,46.7,29.85,WNW,292,2.2,2.9,78,0.00,,---,0.03,VWS V14.01,2013-01-31 10:30:00,
2013-01-31 05:34:00,55.2,51.1,29.82,WNW,292,0.0,0.0,86,0.00,,---,0.03,VWS V14.01,2013-01-31 10:34:00,
2013-01-31 05:35:00,53.2,46.2,29.85,West,270,2.5,4.0,77,0.00,,---,0.03,VWS V14.01,2013-01-31 10:35:00,
2013-01-31 05:39:00,55.0,50.9,29.82,NNW,338,1.3,2.7,86,0.00,,---,0.03,VWS V14.01,2013-01-31 10:39:00,
2013-01-31 05:40:00,53.2,46.2,29.85,NW,315,4.0,4.0,77,0.00,,---,0.03,VWS V14.01,2013-01-31 10:40:00,
2013-01-31 05:44:00,54.9,50.4,29.85,NW,315,0.9,3.6,85,0.00,,---,0.03,VWS V14.01,2013-01-31 10:44:00,
2013-01-31 05:45:00,53.2,45.5,29.88,WNW,292,2.5,4.0,75,0.00,,---,0.03,VWS V14.01,2013-01-31 10:45:00,
2013-01-31 05:49:00,54.7,49.6,29.85,NW,315,3.4,3.4,83,0.00,,---,0.03,VWS V14.01,2013-01-31 10:49:00,
2013-01-31 05:50:00,53.2,45.5,29.88,WNW,292,2.5,3.6,75,0.00,,---,0.03,VWS V14.01,2013-01-31 10:50:00,
2013-01-31 05:54:00,54.5,49.1,29.85,WNW,292,0.0,2.0,82,0.00,,---,0.03,VWS V14.01,2013-01-31 10:54:00,
2013-01-31 05:55:00,53.2,45.5,29.88,WNW,292,2.0,4.9,75,0.00,,---,0.03,VWS V14.01,2013-01-31 10:55:00,
2013-01-31 05:59:00,54.1,48.5,29.85,WNW,292,2.2,2.9,81,0.00,,---,0.03,VWS V14.01,2013-01-31 10:59:00,
2013-01-31 06:00:00,53.1,44.7,29.88,West,270,2.2,4.3,73,0.00,,---,0.03,VWS V14.01,2013-01-31 11:00:00,
2013-01-31 06:04:00,54.0,48.3,29.85,WNW,292,0.9,2.2,81,0.00,,---,0.03,VWS V14.01,2013-01-31 11:04:00,
2013-01-31 06:05:00,52.9,44.5,29.88,NW,315,4.0,4.0,73,0.00,,---,0.03,VWS V14.01,2013-01-31 11:05:00,
2013-01-31 06:09:00,53.8,47.8,29.85,West,270,3.6,3.6,80,0.00,,---,0.03,VWS V14.01,2013-01-31 11:09:00,
2013-01-31 06:10:00,52.9,44.1,29.88,WNW,292,3.4,5.8,72,0.00,,---,0.03,VWS V14.01,2013-01-31 11:10:00,
2013-01-31 06:14:00,54.0,47.6,29.85,NNW,338,0.0,2.5,79,0.00,,---,0.03,VWS V14.01,2013-01-31 11:14:00,
2013-01-31 06:15:00,52.9,43.0,29.91,WNW,292,2.0,5.8,69,0.00,,---,0.03,VWS V14.01,2013-01-31 11:15:00,
2013-01-31 06:19:00,53.8,47.1,29.85,West,270,2.0,3.4,78,0.00,,---,0.03,VWS V14.01,2013-01-31 11:19:00,
2013-01-31 06:20:00,52.5,42.3,29.91,NNW,338,2.7,5.8,68,0.00,,---,0.03,VWS V14.01,2013-01-31 11:20:00,
2013-01-31 06:24:00,53.6,46.9,29.85,NW,315,1.3,2.9,78,0.00,,---,0.03,VWS V14.01,2013-01-31 11:24:00,
2013-01-31 06:25:00,52.2,41.2,29.91,NW,315,2.9,4.0,66,0.00,,---,0.03,VWS V14.01,2013-01-31 11:25:00,
2013-01-31 06:29:00,53.4,46.7,29.85,NW,315,2.0,2.7,78,0.00,,---,0.03,VWS V14.01,2013-01-31 11:29:00,
2013-01-31 06:30:00,52.2,40.8,29.91,WNW,292,2.0,5.6,65,0.00,,---,0.03,VWS V14.01,2013-01-31 11:30:00,
2013-01-31 06:34:00,53.2,46.6,29.85,NW,315,2.9,2.9,78,0.00,,---,0.03,VWS V14.01,2013-01-31 11:34:00,
2013-01-31 06:35:00,52.7,40.5,29.91,WNW,292,2.9,4.0,63,0.00,,---,0.03,VWS V14.01,2013-01-31 11:35:00,
2013-01-31 06:39:00,53.2,46.2,29.85,NW,315,4.0,4.0,77,0.00,,---,0.03,VWS V14.01,2013-01-31 11:39:00,
2013-01-31 06:40:00,53.2,41.4,29.91,NNW,338,2.5,2.9,64,0.00,,---,0.03,VWS V14.01,2013-01-31 11:40:00,
2013-01-31 06:44:00,53.2,46.2,29.88,WNW,292,2.2,4.0,77,0.00,,---,0.03,VWS V14.01,2013-01-31 11:44:00,
2013-01-31 06:45:00,53.2,41.0,29.91,NW,315,2.7,3.8,63,0.00,,---,0.03,VWS V14.01,2013-01-31 11:45:00,
2013-01-31 06:49:00,53.2,45.5,29.88,NW,315,2.0,3.6,75,0.00,,---,0.03,VWS V14.01,2013-01-31 11:49:00,
2013-01-31 06:50:00,53.8,39.8,29.91,NNW,338,2.9,6.3,59,0.00,,---,0.03,VWS V14.01,2013-01-31 11:50:00,
2013-01-31 06:54:00,53.2,45.5,29.88,NNW,338,3.1,4.9,75,0.00,,---,0.03,VWS V14.01,2013-01-31 11:54:00,
2013-01-31 06:55:00,52.9,38.5,29.91,NNW,338,3.4,4.0,58,0.00,,---,0.03,VWS V14.01,2013-01-31 11:55:00,
2013-01-31 07:00:00,53.1,44.7,29.88,NW,315,2.5,4.3,73,0.00,,---,0.03,VWS V14.01,2013-01-31 12:00:00,
2013-01-31 07:05:00,52.9,44.5,29.88,WNW,292,3.4,3.4,73,0.00,,---,0.03,VWS V14.01,2013-01-31 12:05:00,
2013-01-31 07:10:00,52.9,44.5,29.88,WNW,292,4.0,5.8,73,0.00,,---,0.03,VWS V14.01,2013-01-31 12:10:00,
2013-01-31 07:15:00,52.9,43.4,29.91,NW,315,3.6,5.4,70,0.00,,---,0.03,VWS V14.01,2013-01-31 12:15:00,
2013-01-31 07:20:00,52.7,42.5,29.91,NW,315,2.0,5.8,68,0.00,,---,0.03,VWS V14.01,2013-01-31 12:20:00,
2013-01-31 07:25:00,52.3,41.3,29.91,NW,315,2.9,4.0,66,0.00,,---,0.03,VWS V14.01,2013-01-31 12:25:00,
2013-01-31 07:30:00,52.2,40.4,29.91,WNW,292,2.5,5.6,64,0.00,,---,0.03,VWS V14.01,2013-01-31 12:30:00,
2013-01-31 07:35:00,52.5,40.7,29.91,NNW,338,3.1,4.0,64,0.00,,---,0.03,VWS V14.01,2013-01-31 12:35:00,
2013-01-31 07:40:00,53.1,41.2,29.91,NNW,338,2.9,2.9,64,0.00,,---,0.03,VWS V14.01,2013-01-31 12:40:00,
2013-01-31 07:45:00,53.4,41.2,29.91,NNW,338,2.9,3.8,63,0.00,,---,0.03,VWS V14.01,2013-01-31 12:45:00,
2013-01-31 07:50:00,53.6,39.6,29.91,NW,315,4.7,6.3,59,0.00,,---,0.03,VWS V14.01,2013-01-31 12:50:00,
2013-01-31 07:55:00,53.1,39.1,29.91,WNW,292,3.1,3.6,59,0.00,,---,0.03,VWS V14.01,2013-01-31 12:55:00,
2013-01-31 08:00:00,52.7,38.3,29.91,WSW,248,3.6,4.9,58,0.00,,---,0.03,VWS V14.01,2013-01-31 13:00:00,
2013-01-31 08:05:00,52.7,37.9,29.91,NNW,338,4.0,4.9,57,0.00,,---,0.03,VWS V14.01,2013-01-31 13:05:00,
2013-01-31 08:10:00,52.7,36.5,29.91,WNW,292,4.7,9.8,54,0.00,,---,0.03,VWS V14.01,2013-01-31 13:10:00,
2013-01-31 08:15:00,52.7,37.0,29.91,East,90,2.7,6.0,55,0.00,,---,0.03,VWS V14.01,2013-01-31 13:15:00,
2013-01-31 08:20:00,52.9,36.7,29.91,NW,315,4.9,6.0,54,0.00,,---,0.03,VWS V14.01,2013-01-31 13:20:00,
2013-01-31 08:25:00,53.1,36.4,29.91,NNW,338,3.6,7.6,53,0.00,,---,0.03,VWS V14.01,2013-01-31 13:25:00,
2013-01-31 08:30:00,53.2,36.1,29.94,WNW,292,3.1,6.3,52,0.00,,---,0.03,VWS V14.01,2013-01-31 13:30:00,
2013-01-31 08:35:00,53.6,36.4,29.94,WNW,292,4.9,6.0,52,0.00,,---,0.03,VWS V14.01,2013-01-31 13:35:00,
2013-01-31 08:40:00,54.0,36.8,29.94,WSW,248,4.3,4.7,52,0.00,,---,0.03,VWS V14.01,2013-01-31 13:40:00,
2013-01-31 08:45:00,54.3,37.1,29.94,NW,315,2.0,5.6,52,0.00,,---,0.03,VWS V14.01,2013-01-31 13:45:00,
2013-01-31 08:50:00,54.3,36.1,29.94,SW,225,4.3,7.2,50,0.00,,---,0.03,VWS V14.01,2013-01-31 13:50:00,
2013-01-31 08:55:00,54.1,35.4,29.94,NW,315,3.1,3.6,49,0.00,,---,0.03,VWS V14.01,2013-01-31 13:55:00,
2013-01-31 09:00:00,55.0,36.8,29.94,NNE,22,3.1,4.9,50,0.00,,---,0.03,VWS V14.01,2013-01-31 14:00:00,
2013-01-31 09:05:00,54.9,35.6,29.94,WSW,248,3.8,6.5,48,0.00,,---,0.03,VWS V14.01,2013-01-31 14:05:00,
2013-01-31 09:10:00,54.7,35.4,29.94,NW,315,1.6,6.3,48,0.00,,---,0.03,VWS V14.01,2013-01-31 14:10:00,
2013-01-31 09:15:00,54.3,34.5,29.94,WNW,292,3.1,5.8,47,0.00,,---,0.03,VWS V14.01,2013-01-31 14:15:00,
2013-01-31 09:20:00,54.5,34.7,29.94,NNW,338,2.9,5.8,47,0.00,,---,0.03,VWS V14.01,2013-01-31 14:20:00,
2013-01-31 09:25:00,54.7,34.3,29.94,WNW,292,1.6,4.3,46,0.00,,---,0.03,VWS V14.01,2013-01-31 14:25:00,
2013-01-31 09:30:00,54.9,34.5,29.97,NW,315,3.1,4.5,46,0.00,,---,0.03,VWS V14.01,2013-01-31 14:30:00,
2013-01-31 09:35:00,54.9,35.0,29.97,WNW,292,2.2,5.6,47,0.00,,---,0.03,VWS V14.01,2013-01-31 14:35:00,
2013-01-31 09:40:00,55.9,36.0,29.97,SSW,202,2.0,2.7,47,0.00,,---,0.03,VWS V14.01,2013-01-31 14:40:00,
2013-01-31 09:45:00,56.5,35.4,29.97,West,270,3.8,8.7,45,0.00,,---,0.03,VWS V14.01,2013-01-31 14:45:00,
2013-01-31 09:50:00,57.6,35.8,29.97,WSW,248,3.6,4.3,44,0.00,,---,0.03,VWS V14.01,2013-01-31 14:50:00,
2013-01-31 09:55:00,58.3,35.9,29.97,WNW,292,3.8,6.0,43,0.00,,---,0.03,VWS V14.01,2013-01-31 14:55:00,
2013-01-31 10:00:00,59.2,36.1,29.97,WNW,292,2.0,4.7,42,0.00,,---,0.03,VWS V14.01,2013-01-31 15:00:00,
2013-01-31 10:05:00,60.1,35.7,29.97,NNW,338,4.9,4.9,40,0.00,,---,0.03,VWS V14.01,2013-01-31 15:05:00,
2013-01-31 10:10:00,59.9,34.9,29.97,NNW,338,5.6,5.6,39,0.00,,---,0.03,VWS V14.01,2013-01-31 15:10:00,
2013-01-31 10:15:00,60.8,35.7,29.97,WNW,292,3.4,5.4,39,0.00,,---,0.03,VWS V14.01,2013-01-31 15:15:00,
2013-01-31 10:20:00,61.5,35.0,29.97,WNW,292,3.8,8.1,37,0.00,,---,0.03,VWS V14.01,2013-01-31 15:20:00,
2013-01-31 10:25:00,61.9,34.7,29.97,NW,315,3.4,5.4,36,0.00,,---,0.03,VWS V14.01,2013-01-31 15:25:00,
2013-01-31 10:30:00,62.6,34.6,30.00,West,270,6.0,7.4,35,0.00,,---,0.03,VWS V14.01,2013-01-31 15:30:00,
2013-01-31 10:35:00,62.2,34.3,30.00,West,270,3.4,5.6,35,0.00,,---,0.03,VWS V14.01,2013-01-31 15:35:00,
2013-01-31 10:40:00,61.9,34.0,30.00,WNW,292,3.8,6.3,35,0.00,,---,0.03,VWS V14.01,2013-01-31 15:40:00,
2013-01-31 10:45:00,62.6,33.9,29.97,WNW,292,4.3,6.0,34,0.00,,---,0.03,VWS V14.01,2013-01-31 15:45:00,
2013-01-31 10:50:00,64.0,35.1,29.97,NNW,338,3.4,4.0,34,0.00,,---,0.03,VWS V14.01,2013-01-31 15:50:00,
2013-01-31 10:55:00,64.0,34.4,29.97,WNW,292,2.5,6.3,33,0.00,,---,0.03,VWS V14.01,2013-01-31 15:55:00,
2013-01-31 11:00:00,64.2,34.5,29.97,West,270,2.9,4.9,33,0.00,,---,0.03,VWS V14.01,2013-01-31 16:00:00,
2013-01-31 11:05:00,63.7,34.1,29.97,NW,315,3.8,4.9,33,0.00,,---,0.03,VWS V14.01,2013-01-31 16:05:00,
2013-01-31 11:10:00,64.8,32.6,29.97,WNW,292,3.8,4.3,30,0.00,,---,0.03,VWS V14.01,2013-01-31 16:10:00,
2013-01-31 11:15:00,64.2,30.5,29.97,NW,315,5.4,6.5,28,0.00,,---,0.03,VWS V14.01,2013-01-31 16:15:00,
2013-01-31 11:20:00,65.3,30.5,29.97,NNW,338,4.0,5.4,27,0.00,,---,0.03,VWS V14.01,2013-01-31 16:20:00,
2013-01-31 11:25:00,64.4,28.8,29.97,WNW,292,4.7,6.5,26,0.00,,---,0.03,VWS V14.01,2013-01-31 16:25:00,
2013-01-31 11:30:00,64.9,29.3,30.00,NNW,338,4.7,6.0,26,0.00,,---,0.03,VWS V14.01,2013-01-31 16:30:00,
2013-01-31 11:35:00,66.6,29.7,30.00,West,270,2.9,3.8,25,0.00,,---,0.03,VWS V14.01,2013-01-31 16:35:00,
2013-01-31 11:40:00,66.9,31.9,30.00,WSW,248,2.7,4.0,27,0.00,,---,0.03,VWS V14.01,2013-01-31 16:40:00,
2013-01-31 11:45:00,66.9,31.9,29.97,NW,315,2.5,4.9,27,0.00,,---,0.03,VWS V14.01,2013-01-31 16:45:00,
2013-01-31 11:50:00,66.9,31.0,29.97,NW,315,3.8,4.7,26,0.00,,---,0.03,VWS V14.01,2013-01-31 16:50:00,
2013-01-31 11:55:00,67.5,32.3,29.97,West,270,2.9,4.9,27,0.00,,---,0.03,VWS V14.01,2013-01-31 16:55:00,
2013-01-31 12:00:00,66.4,31.4,29.97,WNW,292,1.1,5.8,27,0.00,,---,0.03,VWS V14.01,2013-01-31 17:00:00,
2013-01-31 12:05:00,64.9,30.2,29.97,WNW,292,4.3,6.5,27,0.00,,---,0.03,VWS V14.01,2013-01-31 17:05:00,
2013-01-31 12:10:00,66.2,30.3,29.97,NNW,338,1.3,4.9,26,0.00,,---,0.03,VWS V14.01,2013-01-31 17:10:00,
2013-01-31 12:15:00,65.7,30.8,29.97,WSW,248,2.0,5.8,27,0.00,,---,0.03,VWS V14.01,2013-01-31 17:15:00,
2013-01-31 12:20:00,66.6,30.6,29.97,North,0,4.0,4.0,26,0.00,,---,0.03,VWS V14.01,2013-01-31 17:20:00,
2013-01-31 12:25:00,66.0,30.2,29.97,NW,315,3.6,5.6,26,0.00,,---,0.03,VWS V14.01,2013-01-31 17:25:00,
2013-01-31 12:30:00,66.7,29.8,29.97,South,180,2.0,5.6,25,0.00,,---,0.03,VWS V14.01,2013-01-31 17:30:00,
2013-01-31 12:35:00,66.4,29.5,29.97,WSW,248,3.4,6.0,25,0.00,,---,0.03,VWS V14.01,2013-01-31 17:35:00,
2013-01-31 12:40:00,66.7,28.8,29.97,NNW,338,1.1,7.4,24,0.00,,---,0.03,VWS V14.01,2013-01-31 17:40:00,
2013-01-31 12:45:00,68.2,30.0,29.97,WNW,292,3.6,3.6,24,0.00,,---,0.03,VWS V14.01,2013-01-31 17:45:00,
2013-01-31 12:50:00,67.1,29.1,29.97,West,270,3.4,6.0,24,0.00,,---,0.03,VWS V14.01,2013-01-31 17:50:00,
2013-01-31 12:55:00,66.9,27.9,29.97,NNW,338,3.6,4.7,23,0.00,,---,0.03,VWS V14.01,2013-01-31 17:55:00,
2013-01-31 13:00:00,65.8,28.1,29.97,WSW,248,3.8,6.5,24,0.00,,---,0.03,VWS V14.01,2013-01-31 18:00:00,
2013-01-31 13:05:00,65.1,26.4,29.97,WSW,248,2.7,6.0,23,0.00,,---,0.03,VWS V14.01,2013-01-31 18:05:00,
2013-01-31 13:10:00,66.4,27.5,29.97,East,90,1.1,5.8,23,0.00,,---,0.03,VWS V14.01,2013-01-31 18:10:00,
2013-01-31 13:15:00,64.9,26.3,29.97,NNW,338,4.0,6.0,23,0.00,,---,0.03,VWS V14.01,2013-01-31 18:15:00,
2013-01-31 13:20:00,65.5,26.7,29.97,North,0,2.7,4.0,23,0.00,,---,0.03,VWS V14.01,2013-01-31 18:20:00,
2013-01-31 13:25:00,63.5,26.1,29.97,West,270,3.8,4.3,24,0.00,,---,0.03,VWS V14.01,2013-01-31 18:25:00,
2013-01-31 13:30:00,63.3,25.9,29.94,NNW,338,3.1,4.0,24,0.00,,---,0.03,VWS V14.01,2013-01-31 18:30:00,
2013-01-31 13:35:00,61.7,24.6,29.94,WSW,248,3.6,6.3,24,0.00,,---,0.03,VWS V14.01,2013-01-31 18:35:00,
2013-01-31 13:40:00,61.5,25.4,29.94,SSW,202,0.0,3.8,25,0.00,,---,0.03,VWS V14.01,2013-01-31 18:40:00,
2013-01-31 13:45:00,60.1,23.2,29.94,WNW,292,2.9,7.4,24,0.00,,---,0.03,VWS V14.01,2013-01-31 18:45:00,
2013-01-31 13:50:00,60.6,24.6,29.94,NW,315,2.5,4.0,25,0.00,,---,0.03,VWS V14.01,2013-01-31 18:50:00,
2013-01-31 13:55:00,60.4,23.5,29.94,West,270,2.9,4.9,24,0.00,,---,0.03,VWS V14.01,2013-01-31 18:55:00,
2013-01-31 14:00:00,60.3,23.4,29.94,SW,225,2.0,3.8,24,0.00,,---,0.03,VWS V14.01,2013-01-31 19:00:00,
2013-01-31 14:05:00,60.3,23.4,29.94,SSW,202,2.5,6.5,24,0.00,,---,0.03,VWS V14.01,2013-01-31 19:05:00,
2013-01-31 14:10:00,60.1,23.2,29.94,NNW,338,3.6,6.0,24,0.00,,---,0.03,VWS V14.01,2013-01-31 19:10:00,
2013-01-31 14:15:00,60.1,23.2,29.97,NW,315,7.6,7.6,24,0.00,,---,0.03,VWS V14.01,2013-01-31 19:15:00,
2013-01-31 14:20:00,60.1,23.2,29.97,WSW,248,3.1,7.6,24,0.00,,---,0.03,VWS V14.01,2013-01-31 19:20:00,
2013-01-31 14:25:00,59.9,23.0,29.97,WNW,292,3.8,6.0,24,0.00,,---,0.03,VWS V14.01,2013-01-31 19:25:00,
2013-01-31 14:30:00,59.9,23.0,29.97,NW,315,3.8,6.0,24,0.00,,---,0.03,VWS V14.01,2013-01-31 19:30:00,
2013-01-31 14:35:00,59.9,17.6,29.97,NNW,338,4.9,5.8,19,0.00,,---,0.03,VWS V14.01,2013-01-31 19:35:00,
2013-01-31 14:40:00,60.3,21.3,29.97,NW,315,1.3,5.4,22,0.00,,---,0.03,VWS V14.01,2013-01-31 19:40:00,
2013-01-31 14:45:00,60.6,18.2,29.94,NW,315,2.9,7.6,19,0.00,,---,0.03,VWS V14.01,2013-01-31 19:45:00,
2013-01-31 14:50:00,60.1,17.7,29.94,South,180,2.9,4.0,19,0.00,,---,0.03,VWS V14.01,2013-01-31 19:50:00,
2013-01-31 14:55:00,60.1,21.1,29.94,West,270,1.3,3.8,22,0.00,,---,0.03,VWS V14.01,2013-01-31 19:55:00,
2013-01-31 15:00:00,60.1,21.1,29.97,WSW,248,2.9,5.6,22,0.00,,---,0.03,VWS V14.01,2013-01-31 20:00:00,
2013-01-31 15:05:00,60.1,17.7,29.97,West,270,3.1,5.4,19,0.00,,---,0.03,VWS V14.01,2013-01-31 20:05:00,
2013-01-31 15:10:00,59.9,21.0,29.97,WNW,292,2.7,6.0,22,0.00,,---,0.03,VWS V14.01,2013-01-31 20:10:00,
2013-01-31 15:15:00,60.1,21.1,29.97,NW,315,4.0,4.7,22,0.00,,---,0.03,VWS V14.01,2013-01-31 20:15:00,
2013-01-31 15:20:00,60.1,17.7,29.97,WNW,292,4.3,4.3,19,0.00,,---,0.03,VWS V14.01,2013-01-31 20:20:00,
2013-01-31 15:25:00,60.1,17.7,29.97,NW,315,1.3,4.0,19,0.00,,---,0.03,VWS V14.01,2013-01-31 20:25:00,
2013-01-31 15:30:00,60.4,18.0,29.94,North,0,4.3,6.0,19,0.00,,---,0.03,VWS V14.01,2013-01-31 20:30:00,
2013-01-31 15:35:00,60.8,20.6,29.94,WNW,292,2.2,5.4,21,0.00,,---,0.03,VWS V14.01,2013-01-31 20:35:00,
2013-01-31 15:40:00,59.2,17.0,29.97,WNW,292,1.6,3.8,19,0.00,,---,0.03,VWS V14.01,2013-01-31 20:40:00,
2013-01-31 15:41:00,60.8,20.6,29.94,North,0,2.0,3.6,21,0.00,,---,0.03,VWS V14.01,2013-01-31 20:41:00,
2013-01-31 15:45:00,59.2,17.0,29.97,NW,315,3.4,3.6,19,0.00,,---,0.03,VWS V14.01,2013-01-31 20:45:00,
2013-01-31 15:46:00,60.4,21.4,29.97,West,270,2.7,3.8,22,0.00,,---,0.03,VWS V14.01,2013-01-31 20:46:00,
2013-01-31 15:50:00,58.8,16.7,29.97,WNW,292,1.1,3.6,19,0.00,,---,0.03,VWS V14.01,2013-01-31 20:50:00,
2013-01-31 15:51:00,60.1,21.1,29.97,SSW,202,0.9,3.8,22,0.00,,---,0.03,VWS V14.01,2013-01-31 20:51:00,
2013-01-31 15:55:00,58.8,16.7,29.97,WNW,292,2.9,4.0,19,0.00,,---,0.03,VWS V14.01,2013-01-31 20:55:00,
2013-01-31 15:56:00,60.4,21.4,29.97,WNW,292,2.7,3.6,22,0.00,,---,0.03,VWS V14.01,2013-01-31 20:56:00,
2013-01-31 16:00:00,58.6,16.5,29.97,WNW,292,2.5,3.1,19,0.00,,---,0.03,VWS V14.01,2013-01-31 21:00:00,
2013-01-31 16:01:00,60.4,21.4,29.94,NNW,338,3.8,4.3,22,0.00,,---,0.03,VWS V14.01,2013-01-31 21:01:00,
2013-01-31 16:05:00,58.3,16.2,29.97,West,270,1.3,3.4,19,0.00,,---,0.03,VWS V14.01,2013-01-31 21:05:00,
2013-01-31 16:06:00,60.1,21.1,29.94,NNE,22,1.1,3.1,22,0.00,,---,0.03,VWS V14.01,2013-01-31 21:06:00,
2013-01-31 16:10:00,58.1,16.1,29.97,NW,315,2.0,6.0,19,0.00,,---,0.03,VWS V14.01,2013-01-31 21:10:00,
2013-01-31 16:11:00,60.3,21.3,29.94,NNW,338,2.5,3.1,22,0.00,,---,0.03,VWS V14.01,2013-01-31 21:11:00,
2013-01-31 16:15:00,57.9,15.9,29.97,NNW,338,2.5,2.7,19,0.00,,---,0.03,VWS V14.01,2013-01-31 21:15:00,
2013-01-31 16:16:00,60.3,21.3,29.94,NNW,338,3.6,3.6,22,0.00,,---,0.03,VWS V14.01,2013-01-31 21:16:00,
2013-01-31 16:20:00,57.7,15.8,29.97,WNW,292,1.3,3.1,19,0.00,,---,0.03,VWS V14.01,2013-01-31 21:20:00,
2013-01-31 16:21:00,60.1,21.1,29.94,WNW,292,2.0,4.7,22,0.00,,---,0.03,VWS V14.01,2013-01-31 21:21:00,
2013-01-31 16:25:00,57.2,18.7,29.97,West,270,0.0,1.6,22,0.00,,---,0.03,VWS V14.01,2013-01-31 21:25:00,
2013-01-31 16:26:00,59.7,20.8,29.94,WNW,292,2.9,2.9,22,0.00,,---,0.03,VWS V14.01,2013-01-31 21:26:00,
2013-01-31 16:30:00,56.5,18.1,29.97,West,270,0.0,0.0,22,0.00,,---,0.03,VWS V14.01,2013-01-31 21:30:00,
2013-01-31 16:31:00,59.5,20.7,29.97,WNW,292,2.5,4.0,22,0.00,,---,0.03,VWS V14.01,2013-01-31 21:31:00,
2013-01-31 16:35:00,55.9,17.7,29.97,WSW,248,0.0,0.0,22,0.00,,---,0.03,VWS V14.01,2013-01-31 21:35:00,
2013-01-31 16:36:00,59.4,20.5,29.97,NNW,338,3.1,3.6,22,0.00,,---,0.03,VWS V14.01,2013-01-31 21:36:00,
2013-01-31 16:40:00,55.6,17.4,29.97,NNW,338,1.3,2.5,22,0.00,,---,0.03,VWS V14.01,2013-01-31 21:40:00,
2013-01-31 16:41:00,59.2,17.0,29.97,WNW,292,1.6,3.8,19,0.00,,---,0.03,VWS V14.01,2013-01-31 21:41:00,
2013-01-31 16:45:00,55.4,17.2,29.97,NW,315,0.0,2.0,22,0.00,,---,0.03,VWS V14.01,2013-01-31 21:45:00,
2013-01-31 16:46:00,59.2,17.0,29.97,NW,315,3.4,3.6,19,0.00,,---,0.03,VWS V14.01,2013-01-31 21:46:00,
2013-01-31 16:50:00,55.0,19.9,29.97,West,270,0.0,0.0,25,0.00,,---,0.03,VWS V14.01,2013-01-31 21:50:00,
2013-01-31 16:51:00,58.8,16.7,29.97,WNW,292,1.1,3.6,19,0.00,,---,0.03,VWS V14.01,2013-01-31 21:51:00,
2013-01-31 16:55:00,54.5,19.4,29.97,WSW,248,0.0,0.0,25,0.00,,---,0.03,VWS V14.01,2013-01-31 21:55:00,
2013-01-31 16:56:00,58.8,16.7,29.97,WNW,292,2.9,4.0,19,0.00,,---,0.03,VWS V14.01,2013-01-31 21:56:00,
2013-01-31 17:00:00,53.8,18.8,29.97,West,270,0.0,0.0,25,0.00,,---,0.03,VWS V14.01,2013-01-31 22:00:00,
2013-01-31 17:01:00,58.6,16.5,29.97,WNW,292,2.5,3.1,19,0.00,,---,0.03,VWS V14.01,2013-01-31 22:01:00,
2013-01-31 17:05:00,53.6,18.6,29.97,WSW,248,1.6,2.5,25,0.00,,---,0.03,VWS V14.01,2013-01-31 22:05:00,
2013-01-31 17:06:00,58.3,16.2,29.97,West,270,1.3,3.4,19,0.00,,---,0.03,VWS V14.01,2013-01-31 22:06:00,
2013-01-31 17:10:00,53.4,19.4,29.97,West,270,2.2,2.9,26,0.00,,---,0.03,VWS V14.01,2013-01-31 22:10:00,
2013-01-31 17:11:00,58.1,16.1,29.97,NW,315,2.0,6.0,19,0.00,,---,0.03,VWS V14.01,2013-01-31 22:11:00,
2013-01-31 17:15:00,53.2,20.1,29.97,NW,315,1.6,3.1,27,0.00,,---,0.03,VWS V14.01,2013-01-31 22:15:00,
2013-01-31 17:16:00,57.9,15.9,29.97,NNW,338,2.5,2.7,19,0.00,,---,0.03,VWS V14.01,2013-01-31 22:16:00,
2013-01-31 17:20:00,52.7,19.7,29.97,WNW,292,0.0,1.6,27,0.00,,---,0.03,VWS V14.01,2013-01-31 22:20:00,
2013-01-31 17:21:00,57.7,15.8,29.97,WNW,292,1.3,3.1,19,0.00,,---,0.03,VWS V14.01,2013-01-31 22:21:00,
2013-01-31 17:25:00,52.2,19.2,29.97,West,270,0.0,1.6,27,0.00,,---,0.03,VWS V14.01,2013-01-31 22:25:00,
2013-01-31 17:26:00,57.2,18.7,29.97,West,270,0.0,1.6,22,0.00,,---,0.03,VWS V14.01,2013-01-31 22:26:00,
2013-01-31 17:30:00,51.6,19.6,29.97,WNW,292,0.0,0.9,28,0.00,,---,0.03,VWS V14.01,2013-01-31 22:30:00,
2013-01-31 17:31:00,56.5,18.1,29.97,West,270,0.0,0.0,22,0.00,,---,0.03,VWS V14.01,2013-01-31 22:31:00,
2013-01-31 17:35:00,50.9,19.8,29.97,WNW,292,0.0,0.0,29,0.00,,---,0.03,VWS V14.01,2013-01-31 22:35:00,
2013-01-31 17:36:00,55.9,17.7,29.97,WSW,248,0.0,0.0,22,0.00,,---,0.03,VWS V14.01,2013-01-31 22:36:00,
2013-01-31 17:40:00,50.2,19.2,29.97,WNW,292,0.0,0.0,29,0.00,,---,0.03,VWS V14.01,2013-01-31 22:40:00,
2013-01-31 17:41:00,55.6,17.4,29.97,NNW,338,1.3,2.5,22,0.00,,---,0.03,VWS V14.01,2013-01-31 22:41:00,
2013-01-31 17:45:00,50.4,20.1,30.00,East,90,0.0,2.2,30,0.00,,---,0.03,VWS V14.01,2013-01-31 22:45:00,
2013-01-31 17:46:00,55.4,17.2,29.97,NW,315,0.0,2.0,22,0.00,,---,0.03,VWS V14.01,2013-01-31 22:46:00,
2013-01-31 17:50:00,49.8,20.4,30.00,SSE,158,0.0,0.0,31,0.00,,---,0.03,VWS V14.01,2013-01-31 22:50:00,
2013-01-31 17:51:00,55.0,19.9,29.97,West,270,0.0,0.0,25,0.00,,---,0.03,VWS V14.01,2013-01-31 22:51:00,
2013-01-31 17:55:00,49.3,20.7,30.00,West,270,0.0,0.0,32,0.00,,---,0.03,VWS V14.01,2013-01-31 22:55:00,
2013-01-31 17:56:00,54.5,19.4,29.97,WSW,248,0.0,0.0,25,0.00,,---,0.03,VWS V14.01,2013-01-31 22:56:00,
2013-01-31 18:00:00,49.1,22.0,30.00,WNW,292,1.1,1.1,34,0.00,,---,0.03,VWS V14.01,2013-01-31 23:00:00,
2013-01-31 18:01:00,54.0,19.0,29.97,West,270,0.0,0.0,25,0.00,,---,0.00,VWS V14.01,2013-01-31 23:01:00,
2013-01-31 18:05:00,49.6,24.5,30.00,West,270,2.7,2.7,37,0.00,,---,0.03,VWS V14.01,2013-01-31 23:05:00,
2013-01-31 18:06:00,53.6,18.6,29.97,WSW,248,1.6,2.5,25,0.00,,---,0.03,VWS V14.01,2013-01-31 23:06:00,
2013-01-31 18:10:00,49.5,24.3,30.00,West,270,0.0,2.7,37,0.00,,---,0.03,VWS V14.01,2013-01-31 23:10:00,
2013-01-31 18:11:00,53.4,19.4,29.97,West,270,2.2,2.9,26,0.00,,---,0.03,VWS V14.01,2013-01-31 23:11:00,
2013-01-31 18:15:00,48.7,23.6,30.00,South,180,0.0,0.0,37,0.00,,---,0.03,VWS V14.01,2013-01-31 23:15:00,
2013-01-31 18:16:00,53.2,20.1,29.97,NW,315,1.6,3.1,27,0.00,,---,0.03,VWS V14.01,2013-01-31 23:16:00,
2013-01-31 18:20:00,48.4,23.3,30.00,WSW,248,0.0,0.0,37,0.00,,---,0.03,VWS V14.01,2013-01-31 23:20:00,
2013-01-31 18:21:00,52.7,19.7,29.97,WNW,292,0.0,1.6,27,0.00,,---,0.03,VWS V14.01,2013-01-31 23:21:00,
2013-01-31 18:25:00,48.0,23.6,30.00,WSW,248,0.0,0.0,38,0.00,,---,0.03,VWS V14.01,2013-01-31 23:25:00,
2013-01-31 18:26:00,52.2,19.2,29.97,West,270,0.0,1.6,27,0.00,,---,0.03,VWS V14.01,2013-01-31 23:26:00,
2013-01-31 18:30:00,47.7,23.3,30.00,WSW,248,0.0,0.0,38,0.00,,---,0.03,VWS V14.01,2013-01-31 23:30:00,
2013-01-31 18:31:00,51.6,19.6,29.97,WNW,292,0.0,0.9,28,0.00,,---,0.03,VWS V14.01,2013-01-31 23:31:00,
2013-01-31 18:35:00,46.9,22.7,30.00,WSW,248,0.0,0.0,38,0.00,,---,0.03,VWS V14.01,2013-01-31 23:35:00,
2013-01-31 18:36:00,50.9,19.8,29.97,WNW,292,0.0,0.0,29,0.00,,---,0.03,VWS V14.01,2013-01-31 23:36:00,
2013-01-31 18:40:00,46.9,23.3,30.00,ESE,112,0.0,0.0,39,0.00,,---,0.03,VWS V14.01,2013-01-31 23:40:00,
2013-01-31 18:41:00,50.2,19.2,29.97,WNW,292,0.0,0.0,29,0.00,,---,0.03,VWS V14.01,2013-01-31 23:41:00,
2013-01-31 18:45:00,47.1,23.5,30.03,South,180,0.0,1.3,39,0.00,,---,0.03,VWS V14.01,2013-01-31 23:45:00,
2013-01-31 18:46:00,50.4,20.1,30.00,East,90,0.0,2.2,30,0.00,,---,0.03,VWS V14.01,2013-01-31 23:46:00,
2013-01-31 18:50:00,46.4,22.8,30.03,SSW,202,0.0,0.0,39,0.00,,---,0.03,VWS V14.01,2013-01-31 23:50:00,
2013-01-31 18:51:00,49.8,20.4,30.00,SSE,158,0.0,0.0,31,0.00,,---,0.03,VWS V14.01,2013-01-31 23:51:00,
2013-01-31 18:55:00,46.2,23.2,30.03,SW,225,0.0,0.0,40,0.00,,---,0.03,VWS V14.01,2013-01-31 23:55:00,
2013-01-31 18:56:00,49.3,20.7,30.00,West,270,0.0,0.0,32,0.00,,---,0.03,VWS V14.01,2013-01-31 23:56:00,
2013-01-31 19:00:00,46.4,23.4,30.03,SW,225,0.0,0.0,40,0.00,,---,0.03,VWS V14.01,2013-02-01 00:00:00,
2013-01-31 19:01:00,49.1,22.0,30.00,WNW,292,1.1,1.1,34,0.00,,---,0.03,VWS V14.01,2013-02-01 00:01:00,
2013-01-31 19:05:00,46.2,23.8,30.03,SSW,202,0.0,0.0,41,0.00,,---,0.03,VWS V14.01,2013-02-01 00:05:00,
2013-01-31 19:06:00,49.6,24.5,30.00,West,270,2.7,2.7,37,0.00,,---,0.03,VWS V14.01,2013-02-01 00:06:00,
2013-01-31 19:10:00,45.3,23.6,30.03,SW,225,0.0,0.0,42,0.00,,---,0.03,VWS V14.01,2013-02-01 00:10:00,
2013-01-31 19:11:00,49.5,24.3,30.00,West,270,0.0,2.7,37,0.00,,---,0.03,VWS V14.01,2013-02-01 00:11:00,
2013-01-31 19:15:00,45.1,23.4,30.03,WSW,248,0.0,0.0,42,0.00,,---,0.03,VWS V14.01,2013-02-01 00:15:00,
2013-01-31 19:16:00,48.7,23.6,30.00,South,180,0.0,0.0,37,0.00,,---,0.03,VWS V14.01,2013-02-01 00:16:00,
2013-01-31 19:20:00,45.9,24.6,30.03,SW,225,0.0,0.0,43,0.00,,---,0.03,VWS V14.01,2013-02-01 00:20:00,
2013-01-31 19:21:00,48.4,23.3,30.00,WSW,248,0.0,0.0,37,0.00,,---,0.03,VWS V14.01,2013-02-01 00:21:00,
2013-01-31 19:25:00,45.1,24.5,30.03,SW,225,0.0,0.0,44,0.00,,---,0.03,VWS V14.01,2013-02-01 00:25:00,
2013-01-31 19:26:00,48.0,23.6,30.00,WSW,248,0.0,0.0,38,0.00,,---,0.03,VWS V14.01,2013-02-01 00:26:00,
2013-01-31 19:30:00,45.1,24.5,30.03,SW,225,0.0,0.0,44,0.00,,---,0.03,VWS V14.01,2013-02-01 00:30:00,
2013-01-31 19:31:00,47.7,23.3,30.00,WSW,248,0.0,0.0,38,0.00,,---,0.03,VWS V14.01,2013-02-01 00:31:00,
2013-01-31 19:35:00,44.8,24.8,30.03,SW,225,0.0,0.0,45,0.00,,---,0.03,VWS V14.01,2013-02-01 00:35:00,
2013-01-31 19:36:00,46.9,22.7,30.00,WSW,248,0.0,0.0,38,0.00,,---,0.03,VWS V14.01,2013-02-01 00:36:00,
2013-01-31 19:40:00,45.1,25.6,30.03,SW,225,0.0,0.0,46,0.00,,---,0.03,VWS V14.01,2013-02-01 00:40:00,
2013-01-31 19:41:00,46.9,23.3,30.00,ESE,112,0.0,0.0,39,0.00,,---,0.03,VWS V14.01,2013-02-01 00:41:00,
2013-01-31 19:45:00,45.0,26.0,30.03,SW,225,0.0,0.0,47,0.00,,---,0.03,VWS V14.01,2013-02-01 00:45:00,
2013-01-31 19:46:00,47.1,23.5,30.03,South,180,0.0,1.3,39,0.00,,---,0.03,VWS V14.01,2013-02-01 00:46:00,
2013-01-31 19:50:00,44.2,25.8,30.03,SW,225,0.0,0.0,48,0.00,,---,0.03,VWS V14.01,2013-02-01 00:50:00,
2013-01-31 19:51:00,46.4,22.8,30.03,SSW,202,0.0,0.0,39,0.00,,---,0.03,VWS V14.01,2013-02-01 00:51:00,
2013-01-31 19:55:00,44.1,25.6,30.03,SW,225,0.0,0.0,48,0.00,,---,0.03,VWS V14.01,2013-02-01 00:55:00,
2013-01-31 19:56:00,46.2,23.2,30.03,SW,225,0.0,0.0,40,0.00,,---,0.03,VWS V14.01,2013-02-01 00:56:00,
2013-01-31 20:00:00,44.2,26.3,30.03,SW,225,0.0,0.0,49,0.00,,---,0.03,VWS V14.01,2013-02-01 01:00:00,
2013-01-31 20:01:00,46.4,23.4,30.03,SW,225,0.0,0.0,40,0.00,,---,0.03,VWS V14.01,2013-02-01 01:01:00,
2013-01-31 20:05:00,45.0,27.0,30.03,SW,225,0.0,0.0,49,0.00,,---,0.03,VWS V14.01,2013-02-01 01:05:00,
2013-01-31 20:06:00,46.2,23.8,30.03,SSW,202,0.0,0.0,41,0.00,,---,0.03,VWS V14.01,2013-02-01 01:06:00,
2013-01-31 20:10:00,45.1,27.6,30.03,SW,225,0.0,0.0,50,0.00,,---,0.03,VWS V14.01,2013-02-01 01:10:00,
2013-01-31 20:11:00,45.3,23.6,30.03,SW,225,0.0,0.0,42,0.00,,---,0.03,VWS V14.01,2013-02-01 01:11:00,
2013-01-31 20:15:00,45.0,27.5,30.03,SW,225,0.0,0.0,50,0.00,,---,0.03,VWS V14.01,2013-02-01 01:15:00,
2013-01-31 20:16:00,45.1,23.4,30.03,WSW,248,0.0,0.0,42,0.00,,---,0.03,VWS V14.01,2013-02-01 01:16:00,
2013-01-31 20:20:00,44.6,27.6,30.03,SW,225,0.0,0.0,51,0.00,,---,0.03,VWS V14.01,2013-02-01 01:20:00,
2013-01-31 20:21:00,45.9,24.6,30.03,SW,225,0.0,0.0,43,0.00,,---,0.03,VWS V14.01,2013-02-01 01:21:00,
2013-01-31 20:25:00,44.8,27.8,30.03,WSW,248,0.0,0.0,51,0.00,,---,0.03,VWS V14.01,2013-02-01 01:25:00,
2013-01-31 20:26:00,45.1,24.5,30.03,SW,225,0.0,0.0,44,0.00,,---,0.03,VWS V14.01,2013-02-01 01:26:00,
2013-01-31 20:30:00,44.6,27.6,30.06,WSW,248,0.0,0.0,51,0.00,,---,0.03,VWS V14.01,2013-02-01 01:30:00,
2013-01-31 20:31:00,45.1,24.5,30.03,SW,225,0.0,0.0,44,0.00,,---,0.03,VWS V14.01,2013-02-01 01:31:00,
2013-01-31 20:35:00,44.2,27.7,30.06,WSW,248,0.0,0.0,52,0.00,,---,0.03,VWS V14.01,2013-02-01 01:35:00,
2013-01-31 20:36:00,44.8,24.8,30.03,SW,225,0.0,0.0,45,0.00,,---,0.03,VWS V14.01,2013-02-01 01:36:00,
2013-01-31 20:40:00,43.9,27.9,30.06,WSW,248,0.0,0.0,53,0.00,,---,0.03,VWS V14.01,2013-02-01 01:40:00,
2013-01-31 20:41:00,45.1,25.6,30.03,SW,225,0.0,0.0,46,0.00,,---,0.03,VWS V14.01,2013-02-01 01:41:00,
2013-01-31 20:45:00,43.7,27.7,30.06,WSW,248,0.0,0.0,53,0.00,,---,0.03,VWS V14.01,2013-02-01 01:45:00,
2013-01-31 20:46:00,45.0,26.0,30.03,SW,225,0.0,0.0,47,0.00,,---,0.03,VWS V14.01,2013-02-01 01:46:00,
2013-01-31 20:50:00,43.3,27.4,30.06,WSW,248,0.0,0.0,53,0.00,,---,0.03,VWS V14.01,2013-02-01 01:50:00,
2013-01-31 20:51:00,44.2,25.8,30.03,SW,225,0.0,0.0,48,0.00,,---,0.03,VWS V14.01,2013-02-01 01:51:00,
2013-01-31 20:55:00,45.1,30.0,30.06,WSW,248,0.0,0.0,55,0.00,,---,0.03,VWS V14.01,2013-02-01 01:55:00,
2013-01-31 20:56:00,44.1,25.6,30.03,SW,225,0.0,0.0,48,0.00,,---,0.03,VWS V14.01,2013-02-01 01:56:00,
2013-01-31 21:00:00,45.5,29.8,30.06,WSW,248,0.0,0.0,54,0.00,,---,0.03,VWS V14.01,2013-02-01 02:00:00,
2013-01-31 21:01:00,44.2,26.3,30.03,SW,225,0.0,0.0,49,0.00,,---,0.03,VWS V14.01,2013-02-01 02:01:00,
2013-01-31 21:05:00,45.5,29.4,30.06,WSW,248,0.0,0.0,53,0.00,,---,0.03,VWS V14.01,2013-02-01 02:05:00,
2013-01-31 21:06:00,45.0,27.0,30.03,SW,225,0.0,0.0,49,0.00,,---,0.03,VWS V14.01,2013-02-01 02:06:00,
2013-01-31 21:10:00,45.3,28.3,30.06,WSW,248,0.0,0.0,51,0.00,,---,0.03,VWS V14.01,2013-02-01 02:10:00,
2013-01-31 21:11:00,45.1,27.6,30.03,SW,225,0.0,0.0,50,0.00,,---,0.03,VWS V14.01,2013-02-01 02:11:00,
2013-01-31 21:15:00,44.8,27.8,30.06,WSW,248,0.0,0.0,51,0.00,,---,0.03,VWS V14.01,2013-02-01 02:15:00,
2013-01-31 21:16:00,44.6,27.1,30.03,SW,225,0.0,0.0,50,0.00,,---,0.03,VWS V14.01,2013-02-01 02:16:00,
2013-01-31 21:20:00,44.6,27.6,30.06,WSW,248,0.0,0.0,51,0.00,,---,0.03,VWS V14.01,2013-02-01 02:20:00,
2013-01-31 21:21:00,44.6,27.6,30.03,SW,225,0.0,0.0,51,0.00,,---,0.03,VWS V14.01,2013-02-01 02:21:00,
2013-01-31 21:25:00,44.8,27.3,30.06,WSW,248,0.0,0.0,50,0.00,,---,0.03,VWS V14.01,2013-02-01 02:25:00,
2013-01-31 21:26:00,44.8,27.8,30.03,WSW,248,0.0,0.0,51,0.00,,---,0.03,VWS V14.01,2013-02-01 02:26:00,
2013-01-31 21:30:00,45.1,27.6,30.06,WSW,248,0.0,0.0,50,0.00,,---,0.03,VWS V14.01,2013-02-01 02:30:00,
2013-01-31 21:31:00,44.6,27.6,30.06,WSW,248,0.0,0.0,51,0.00,,---,0.03,VWS V14.01,2013-02-01 02:31:00,
2013-01-31 21:35:00,45.1,27.6,30.06,WSW,248,0.0,0.0,50,0.00,,---,0.03,VWS V14.01,2013-02-01 02:35:00,
2013-01-31 21:36:00,44.1,27.6,30.06,WSW,248,0.0,0.0,52,0.00,,---,0.03,VWS V14.01,2013-02-01 02:36:00,
2013-01-31 21:40:00,45.1,27.1,30.06,WSW,248,0.0,0.0,49,0.00,,---,0.03,VWS V14.01,2013-02-01 02:40:00,
2013-01-31 21:41:00,43.9,27.9,30.06,WSW,248,0.0,0.0,53,0.00,,---,0.03,VWS V14.01,2013-02-01 02:41:00,
2013-01-31 21:45:00,45.3,27.3,30.06,WSW,248,0.0,0.0,49,0.00,,---,0.03,VWS V14.01,2013-02-01 02:45:00,
2013-01-31 21:46:00,43.5,27.5,30.06,WSW,248,0.0,0.0,53,0.00,,---,0.03,VWS V14.01,2013-02-01 02:46:00,
2013-01-31 21:50:00,45.3,27.3,30.06,WSW,248,0.0,0.0,49,0.00,,---,0.03,VWS V14.01,2013-02-01 02:50:00,
2013-01-31 21:51:00,43.5,28.0,30.06,WSW,248,0.0,0.0,54,0.00,,---,0.03,VWS V14.01,2013-02-01 02:51:00,
2013-01-31 21:55:00,45.1,26.6,30.06,WSW,248,0.0,0.0,48,0.00,,---,0.03,VWS V14.01,2013-02-01 02:55:00,
2013-01-31 21:56:00,45.1,30.0,30.06,WSW,248,0.0,0.0,55,0.00,,---,0.03,VWS V14.01,2013-02-01 02:56:00,
2013-01-31 22:00:00,45.1,26.6,30.09,WSW,248,0.0,0.0,48,0.00,,---,0.03,VWS V14.01,2013-02-01 03:00:00,
2013-01-31 22:01:00,45.5,29.8,30.06,WSW,248,0.0,0.0,54,0.00,,---,0.03,VWS V14.01,2013-02-01 03:01:00,
2013-01-31 22:05:00,44.8,26.3,30.09,WSW,248,0.0,0.0,48,0.00,,---,0.03,VWS V14.01,2013-02-01 03:05:00,
2013-01-31 22:06:00,45.5,28.9,30.06,WSW,248,0.0,0.0,52,0.00,,---,0.03,VWS V14.01,2013-02-01 03:06:00,
2013-01-31 22:10:00,44.2,25.8,30.09,WSW,248,0.0,0.0,48,0.00,,---,0.03,VWS V14.01,2013-02-01 03:10:00,
2013-01-31 22:11:00,45.3,28.3,30.06,WSW,248,0.0,0.0,51,0.00,,---,0.03,VWS V14.01,2013-02-01 03:11:00,
2013-01-31 22:15:00,43.7,25.3,30.06,WSW,248,0.0,0.0,48,0.00,,---,0.03,VWS V14.01,2013-02-01 03:15:00,
2013-01-31 22:16:00,44.8,27.8,30.06,WSW,248,0.0,0.0,51,0.00,,---,0.03,VWS V14.01,2013-02-01 03:16:00,
2013-01-31 22:20:00,42.3,24.5,30.06,WSW,248,0.0,0.0,49,0.00,,---,0.03,VWS V14.01,2013-02-01 03:20:00,
2013-01-31 22:21:00,44.6,27.6,30.06,WSW,248,0.0,0.0,51,0.00,,---,0.03,VWS V14.01,2013-02-01 03:21:00,
2013-01-31 22:25:00,42.3,24.5,30.06,WSW,248,0.0,0.0,49,0.00,,---,0.03,VWS V14.01,2013-02-01 03:25:00,
2013-01-31 22:26:00,44.8,27.3,30.06,WSW,248,0.0,0.0,50,0.00,,---,0.03,VWS V14.01,2013-02-01 03:26:00,
2013-01-31 22:30:00,41.7,24.0,30.06,WSW,248,0.0,0.0,49,0.00,,---,0.03,VWS V14.01,2013-02-01 03:30:00,
2013-01-31 22:31:00,45.1,27.6,30.06,WSW,248,0.0,0.0,50,0.00,,---,0.03,VWS V14.01,2013-02-01 03:31:00,
2013-01-31 22:35:00,41.5,24.3,30.06,WSW,248,0.0,0.0,50,0.00,,---,0.03,VWS V14.01,2013-02-01 03:35:00,
2013-01-31 22:36:00,45.1,27.1,30.06,WSW,248,0.0,0.0,49,0.00,,---,0.03,VWS V14.01,2013-02-01 03:36:00,
2013-01-31 22:40:00,40.5,23.8,30.06,WSW,248,0.0,0.0,51,0.00,,---,0.03,VWS V14.01,2013-02-01 03:40:00,
2013-01-31 22:41:00,45.1,27.1,30.06,WSW,248,0.0,0.0,49,0.00,,---,0.03,VWS V14.01,2013-02-01 03:41:00,
2013-01-31 22:45:00,39.7,23.1,30.06,WSW,248,0.0,0.0,51,0.00,,---,0.03,VWS V14.01,2013-02-01 03:45:00,
2013-01-31 22:46:00,45.3,27.3,30.06,WSW,248,0.0,0.0,49,0.00,,---,0.03,VWS V14.01,2013-02-01 03:46:00,
2013-01-31 22:50:00,39.4,22.8,30.06,WSW,248,0.0,0.0,51,0.00,,---,0.03,VWS V14.01,2013-02-01 03:50:00,
2013-01-31 22:51:00,45.3,27.3,30.06,WSW,248,0.0,0.0,49,0.00,,---,0.03,VWS V14.01,2013-02-01 03:51:00,
2013-01-31 22:55:00,39.2,23.1,30.06,WSW,248,0.0,0.0,52,0.00,,---,0.03,VWS V14.01,2013-02-01 03:55:00,
2013-01-31 22:56:00,45.1,26.6,30.06,WSW,248,0.0,0.0,48,0.00,,---,0.03,VWS V14.01,2013-02-01 03:56:00,
2013-01-31 23:00:00,38.8,22.7,30.09,WSW,248,0.0,0.0,52,0.00,,---,0.00,VWS V14.01,2013-02-01 04:00:00,
2013-01-31 23:01:00,45.0,26.5,30.09,WSW,248,0.0,0.0,48,0.00,,---,0.03,VWS V14.01,2013-02-01 04:01:00,
2013-01-31 23:05:00,38.5,22.9,30.09,WSW,248,0.0,0.0,53,0.00,,---,0.00,VWS V14.01,2013-02-01 04:05:00,
2013-01-31 23:06:00,44.8,26.3,30.09,WSW,248,0.0,0.0,48,0.00,,---,0.03,VWS V14.01,2013-02-01 04:06:00,
2013-01-31 23:10:00,38.1,22.5,30.09,WSW,248,0.0,0.0,53,0.00,,---,0.00,VWS V14.01,2013-02-01 04:10:00,
2013-01-31 23:11:00,44.2,25.8,30.09,WSW,248,0.0,0.0,48,0.00,,---,0.03,VWS V14.01,2013-02-01 04:11:00,
2013-01-31 23:15:00,37.8,22.6,30.06,WSW,248,0.0,0.0,54,0.00,,---,0.00,VWS V14.01,2013-02-01 04:15:00,
2013-01-31 23:16:00,43.5,25.1,30.06,WSW,248,0.0,0.0,48,0.00,,---,0.03,VWS V14.01,2013-02-01 04:16:00,
2013-01-31 23:20:00,37.4,22.3,30.06,WSW,248,0.0,0.0,54,0.00,,---,0.00,VWS V14.01,2013-02-01 04:20:00,
2013-01-31 23:21:00,42.4,24.6,30.06,WSW,248,0.0,0.0,49,0.00,,---,0.03,VWS V14.01,2013-02-01 04:21:00,
2013-01-31 23:25:00,37.6,22.5,30.06,WSW,248,0.0,0.0,54,0.00,,---,0.00,VWS V14.01,2013-02-01 04:25:00,
2013-01-31 23:26:00,42.3,24.5,30.06,WSW,248,0.0,0.0,49,0.00,,---,0.03,VWS V14.01,2013-02-01 04:26:00,
2013-01-31 23:30:00,37.4,22.7,30.06,SSE,158,0.0,0.0,55,0.00,,---,0.00,VWS V14.01,2013-02-01 04:30:00,
2013-01-31 23:31:00,41.5,23.8,30.06,WSW,248,0.0,0.0,49,0.00,,---,0.03,VWS V14.01,2013-02-01 04:31:00,
2013-01-31 23:35:00,37.6,22.9,30.06,SSE,158,0.0,0.0,55,0.00,,---,0.00,VWS V14.01,2013-02-01 04:35:00,
2013-01-31 23:36:00,41.5,24.3,30.06,WSW,248,0.0,0.0,50,0.00,,---,0.03,VWS V14.01,2013-02-01 04:36:00,
2013-01-31 23:40:00,37.4,24.0,30.06,SSE,158,0.0,0.0,58,0.00,,---,0.00,VWS V14.01,2013-02-01 04:40:00,
2013-01-31 23:41:00,40.5,23.8,30.06,WSW,248,0.0,0.0,51,0.00,,---,0.03,VWS V14.01,2013-02-01 04:41:00,
2013-01-31 23:45:00,37.2,23.8,30.06,SSE,158,0.0,0.0,58,0.00,,---,0.00,VWS V14.01,2013-02-01 04:45:00,
2013-01-31 23:46:00,39.7,23.1,30.06,WSW,248,0.0,0.0,51,0.00,,---,0.03,VWS V14.01,2013-02-01 04:46:00,
2013-01-31 23:50:00,37.0,24.5,30.06,SSE,158,0.0,0.0,60,0.00,,---,0.00,VWS V14.01,2013-02-01 04:50:00,
2013-01-31 23:51:00,39.4,22.8,30.06,WSW,248,0.0,0.0,51,0.00,,---,0.03,VWS V14.01,2013-02-01 04:51:00,
2013-01-31 23:55:00,36.9,24.3,30.06,SSE,158,0.0,0.0,60,0.00,,---,0.00,VWS V14.01,2013-02-01 04:55:00,
2013-01-31 23:56:00,39.2,23.1,30.06,WSW,248,0.0,0.0,52,0.00,,---,0.03,VWS V14.01,2013-02-01 04:56:00,